When you browse on this site, cookies collect data to enhance your experience and personalize the content and advertising you see.
Visit our Privacy Policy to learn more. By continuing to use the site, you agree to this use of cookies and data.
  • In Lithuania
  • List of Countries
  • For 7 days
  • Water Temperature
  • Weather Map
  • Weather Widgets
  • user-avatar
    Login

    Hourly Weather Jakubowo

    Today, 14 December, Saturday

    Time Temperature Precipitation Wind Pressure Humidity
    00:00 -1°C° 0 mm 6 mps 729 mmHg 85%
    01:00 0°C° 0 mm 5 mps 730 mmHg 86%
    02:00 0°C° 0 mm 5 mps 729 mmHg 87%
    03:00 -1°C° 0 mm 6 mps 729 mmHg 88%
    04:00 -1°C° 0 mm 6 mps 729 mmHg 89%
    05:00 -1°C° 0 mm 6 mps 729 mmHg 89%
    06:00 -1°C° 0 mm 6 mps 729 mmHg 89%
    07:00 -1°C° 0 mm 6 mps 730 mmHg 88%
    08:00 -1°C° 0 mm 6 mps 730 mmHg 87%
    09:00 0°C° 0 mm 7 mps 730 mmHg 86%
    10:00 0°C° 0 mm 7 mps 730 mmHg 84%
    11:00 0°C° 0 mm 7 mps 730 mmHg 86%
    12:00 0°C° 0 mm 7 mps 730 mmHg 88%
    13:00 0°C° 0 mm 7 mps 730 mmHg 91%
    14:00 +1°C° 0 mm 6 mps 730 mmHg 90%
    15:00 +1°C° 0 mm 6 mps 730 mmHg 89%
    16:00 +1°C° 0 mm 5 mps 730 mmHg 89%
    17:00 +1°C° 0 mm 5 mps 730 mmHg 88%
    18:00 +1°C° 0 mm 5 mps 730 mmHg 88%
    19:00 +1°C° 0 mm 5 mps 730 mmHg 88%
    20:00 +1°C° 0.4 mm 4 mps 730 mmHg 90%
    21:00 +1°C° 0.4 mm 4 mps 730 mmHg 93%
    22:00 +1°C° 0.4 mm 4 mps 730 mmHg 96%
    23:00 +1°C° 0.5 mm 5 mps 730 mmHg 95%

    Tomorrow, 15 December, Sunday

    Time Temperature Precipitation Wind Pressure Humidity
    00:00 +1°C° 0.5 mm 6 mps 731 mmHg 93%
    01:00 +1°C° 0.5 mm 6 mps 731 mmHg 92%
    02:00 +1°C° 0 mm 6 mps 732 mmHg 90%
    03:00 +1°C° 0 mm 6 mps 732 mmHg 88%
    04:00 +1°C° 0 mm 6 mps 733 mmHg 86%
    05:00 +1°C° 0 mm 5 mps 733 mmHg 86%
    06:00 0°C° 0 mm 5 mps 734 mmHg 85%
    07:00 0°C° 0 mm 5 mps 735 mmHg 85%
    08:00 +1°C° 0 mm 5 mps 735 mmHg 84%
    09:00 +1°C° 0 mm 5 mps 736 mmHg 83%
    10:00 +1°C° 0 mm 5 mps 737 mmHg 81%
    11:00 +1°C° 0 mm 5 mps 737 mmHg 80%
    12:00 +1°C° 0 mm 6 mps 737 mmHg 79%
    13:00 +1°C° 0 mm 6 mps 737 mmHg 78%
    14:00 +1°C° 0 mm 6 mps 737 mmHg 77%
    15:00 +1°C° 0 mm 5 mps 737 mmHg 77%
    16:00 +1°C° 0 mm 5 mps 736 mmHg 77%
    17:00 +1°C° 0.2 mm 5 mps 737 mmHg 80%
    18:00 +2°C° 0.2 mm 5 mps 737 mmHg 84%
    19:00 +2°C° 0.2 mm 5 mps 737 mmHg 88%
    20:00 +2°C° 0 mm 5 mps 738 mmHg 88%
    21:00 +2°C° 0 mm 5 mps 738 mmHg 87%
    22:00 +2°C° 0 mm 5 mps 739 mmHg 87%
    23:00 +2°C° 0 mm 5 mps 740 mmHg 85%

    Day after tomorrow, 16 December, Monday

    Time Temperature Precipitation Wind Pressure Humidity
    00:00 +1°C° 0 mm 5 mps 740 mmHg 82%
    01:00 +1°C° 0 mm 5 mps 741 mmHg 80%
    02:00 +1°C° 0 mm 5 mps 741 mmHg 81%
    03:00 +1°C° 0 mm 5 mps 742 mmHg 81%
    04:00 +1°C° 0 mm 5 mps 742 mmHg 82%
    05:00 +1°C° 0 mm 5 mps 743 mmHg 84%
    06:00 0°C° 0 mm 4 mps 743 mmHg 86%
    07:00 0°C° 0 mm 4 mps 744 mmHg 87%
    08:00 +1°C° 0 mm 4 mps 744 mmHg 86%
    09:00 +1°C° 0 mm 4 mps 744 mmHg 86%
    10:00 +1°C° 0 mm 4 mps 745 mmHg 85%
    11:00 +3°C° 0 mm 3 mps 745 mmHg 84%
    12:00 +3°C° 0 mm 3 mps 745 mmHg 83%
    13:00 +4°C° 0 mm 3 mps 745 mmHg 83%
    14:00 +4°C° 0 mm 3 mps 745 mmHg 86%
    15:00 +3°C° 0 mm 3 mps 745 mmHg 89%
    16:00 +3°C° 0 mm 3 mps 745 mmHg 92%
    17:00 +3°C° 0 mm 3 mps 745 mmHg 92%
    18:00 +4°C° 0 mm 3 mps 745 mmHg 92%
    19:00 +4°C° 0 mm 3 mps 745 mmHg 93%
    20:00 +4°C° 0 mm 3 mps 745 mmHg 91%
    21:00 +4°C° 0 mm 3 mps 745 mmHg 89%
    22:00 +4°C° 0 mm 3 mps 745 mmHg 87%
    23:00 +4°C° 0 mm 3 mps 745 mmHg 87%

    17 December, Tuesday

    Time Temperature Precipitation Wind Pressure Humidity
    00:00 +4°C° 0 mm 4 mps 744 mmHg 88%
    01:00 +4°C° 0 mm 4 mps 744 mmHg 88%
    02:00 +4°C° 0 mm 4 mps 744 mmHg 89%
    03:00 +4°C° 0 mm 4 mps 744 mmHg 90%
    04:00 +4°C° 0 mm 4 mps 743 mmHg 90%
    05:00 +4°C° 0 mm 4 mps 743 mmHg 90%
    06:00 +4°C° 0 mm 4 mps 743 mmHg 90%
    07:00 +4°C° 0 mm 4 mps 742 mmHg 90%
    08:00 +4°C° 0 mm 4 mps 743 mmHg 88%
    09:00 +4°C° 0 mm 4 mps 743 mmHg 86%
    10:00 +5°C° 0 mm 4 mps 743 mmHg 85%
    11:00 +5°C° 0 mm 4 mps 743 mmHg 84%
    12:00 +6°C° 0 mm 4 mps 743 mmHg 84%
    13:00 +7°C° 0 mm 3 mps 742 mmHg 84%
    14:00 +5°C° 0 mm 3 mps 742 mmHg 86%
    15:00 +5°C° 0 mm 3 mps 742 mmHg 89%
    16:00 +4°C° 0 mm 3 mps 742 mmHg 92%
    17:00 +5°C° 0 mm 3 mps 743 mmHg 92%
    18:00 +5°C° 0 mm 3 mps 743 mmHg 92%
    19:00 +5°C° 0 mm 4 mps 743 mmHg 91%
    20:00 +5°C° 0 mm 3 mps 743 mmHg 91%
    21:00 +5°C° 0 mm 3 mps 743 mmHg 91%
    22:00 +5°C° 0 mm 3 mps 743 mmHg 91%
    23:00 +4°C° 0 mm 3 mps 743 mmHg 91%

    18 December, Wednesday

    Time Temperature Precipitation Wind Pressure Humidity
    00:00 +4°C° 0 mm 3 mps 743 mmHg 92%
    01:00 +4°C° 0 mm 3 mps 743 mmHg 92%
    02:00 +4°C° 0 mm 3 mps 743 mmHg 92%
    03:00 +4°C° 0 mm 3 mps 743 mmHg 93%
    04:00 +4°C° 0 mm 3 mps 743 mmHg 93%
    05:00 +3°C° 0 mm 3 mps 743 mmHg 93%
    06:00 +3°C° 0 mm 3 mps 743 mmHg 93%
    07:00 +3°C° 0 mm 3 mps 743 mmHg 93%
    08:00 +3°C° 0 mm 3 mps 743 mmHg 90%
    09:00 +4°C° 0 mm 3 mps 744 mmHg 87%
    10:00 +5°C° 0 mm 3 mps 744 mmHg 84%
    11:00 +5°C° 0 mm 3 mps 744 mmHg 81%
    12:00 +6°C° 0 mm 4 mps 744 mmHg 78%
    13:00 +7°C° 0 mm 4 mps 743 mmHg 75%
    14:00 +6°C° 0 mm 4 mps 744 mmHg 79%
    15:00 +5°C° 0 mm 3 mps 744 mmHg 82%
    16:00 +5°C° 0 mm 3 mps 744 mmHg 85%
    17:00 +4°C° 0 mm 3 mps 745 mmHg 87%
    18:00 +4°C° 0 mm 3 mps 745 mmHg 88%
    19:00 +4°C° 0 mm 3 mps 745 mmHg 90%
    20:00 +4°C° 0 mm 3 mps 746 mmHg 90%
    21:00 +3°C° 0 mm 3 mps 746 mmHg 90%
    22:00 +3°C° 0 mm 3 mps 747 mmHg 90%
    23:00 +3°C° 0 mm 3 mps 747 mmHg 91%

    19 December, Thursday

    Time Temperature Precipitation Wind Pressure Humidity
    00:00 +3°C° 0 mm 2 mps 747 mmHg 92%
    01:00 +3°C° 0 mm 2 mps 748 mmHg 94%
    02:00 +3°C° 0 mm 1 mps 748 mmHg 94%
    03:00 +3°C° 0 mm 1 mps 748 mmHg 94%
    04:00 +3°C° 0 mm 1 mps 748 mmHg 94%
    05:00 +3°C° 0 mm 1 mps 748 mmHg 94%
    06:00 +3°C° 0 mm 1 mps 749 mmHg 94%
    07:00 +3°C° 0 mm 1 mps 749 mmHg 95%
    08:00 +3°C° 0 mm 1 mps 749 mmHg 94%
    09:00 +3°C° 0 mm 1 mps 749 mmHg 93%
    10:00 +3°C° 0 mm 1 mps 750 mmHg 92%
    11:00 +4°C° 0 mm 1 mps 750 mmHg 91%
    12:00 +4°C° 0 mm 1 mps 749 mmHg 89%
    13:00 +4°C° 0 mm 1 mps 749 mmHg 88%
    14:00 +4°C° 0 mm 1 mps 749 mmHg 89%
    15:00 +3°C° 0 mm 1 mps 749 mmHg 91%
    16:00 +2°C° 0 mm 2 mps 749 mmHg 92%
    17:00 +1°C° 0 mm 2 mps 749 mmHg 92%
    18:00 +1°C° 0 mm 2 mps 749 mmHg 92%
    19:00 +1°C° 0 mm 2 mps 749 mmHg 92%
    20:00 0°C° 0 mm 3 mps 749 mmHg 92%
    21:00 0°C° 0 mm 3 mps 749 mmHg 92%
    22:00 0°C° 0 mm 3 mps 748 mmHg 92%
    23:00 0°C° 0 mm 3 mps 748 mmHg 91%
    Show more